TimeEST,TemperatureF,Dew PointF,Humidity,Sea Level PressureIn,VisibilityMPH,Wind Direction,Wind SpeedMPH,Gust SpeedMPH,PrecipitationIn,Events,Conditions,WindDirDegrees,DateUTC
12:20 AM,40.8,35.4,81,30.22,10.0,Calm,Calm,-,N/A,,Overcast,0,2012-11-20 05:20:00
12:40 AM,40.8,36.5,85,30.22,10.0,Calm,Calm,-,N/A,,Overcast,0,2012-11-20 05:40:00
1:00 AM,41.5,36.5,82,30.21,10.0,Calm,Calm,-,N/A,,Overcast,0,2012-11-20 06:00:00
1:20 AM,41.5,36.0,81,30.20,10.0,Calm,Calm,-,N/A,,Overcast,0,2012-11-20 06:20:00
1:45 AM,41.4,36.0,81,30.20,10.0,Calm,Calm,-,N/A,,Overcast,0,2012-11-20 06:45:00
2:25 AM,42.4,37.0,81,30.20,10.0,Calm,Calm,-,N/A,,Overcast,0,2012-11-20 07:25:00
2:50 AM,43.2,37.0,79,30.20,10.0,Calm,Calm,-,N/A,,Overcast,0,2012-11-20 07:50:00
3:10 AM,44.1,37.0,76,30.20,10.0,Calm,Calm,-,N/A,,Overcast,0,2012-11-20 08:10:00
4:15 AM,45.0,37.8,76,30.20,10.0,Calm,Calm,-,N/A,,Overcast,0,2012-11-20 09:15:00
4:35 AM,45.0,38.3,77,30.20,10.0,Calm,Calm,-,N/A,,Overcast,0,2012-11-20 09:35:00
4:55 AM,44.8,38.1,77,30.20,10.0,Calm,Calm,-,N/A,,Overcast,0,2012-11-20 09:55:00
5:15 AM,45.5,39.6,80,30.20,10.0,Calm,Calm,-,N/A,,Overcast,0,2012-11-20 10:15:00
6:20 AM,45.7,38.8,77,30.19,10.0,Calm,Calm,-,N/A,,Overcast,0,2012-11-20 11:20:00
6:40 AM,45.7,38.8,77,30.19,10.0,Calm,Calm,-,N/A,,Overcast,0,2012-11-20 11:40:00
7:05 AM,45.5,39.2,79,30.20,10.0,Calm,Calm,-,N/A,,Overcast,0,2012-11-20 12:05:00
7:25 AM,45.7,39.7,80,30.20,10.0,Calm,Calm,-,N/A,,Overcast,0,2012-11-20 12:25:00
7:45 AM,45.9,39.9,80,30.20,10.0,Calm,Calm,-,N/A,,Overcast,0,2012-11-20 12:45:00
8:05 AM,47.3,38.8,72,30.20,10.0,Calm,Calm,-,N/A,,Overcast,0,2012-11-20 13:05:00
8:30 AM,47.5,39.0,72,30.20,10.0,NNE,3.5,-,N/A,,Overcast,20,2012-11-20 13:30:00
8:50 AM,48.2,39.0,71,30.20,10.0,Calm,Calm,-,N/A,,Overcast,0,2012-11-20 13:50:00
9:10 AM,48.6,39.6,71,30.19,10.0,North,3.5,-,N/A,,Overcast,360,2012-11-20 14:10:00
9:55 AM,50.4,40.1,68,30.18,10.0,North,3.5,-,N/A,,Scattered Clouds,350,2012-11-20 14:55:00
10:15 AM,51.1,40.5,67,30.19,10.0,Calm,Calm,-,N/A,,Overcast,0,2012-11-20 15:15:00
10:35 AM,52.3,40.6,64,30.18,10.0,NNE,3.5,-,N/A,,Overcast,30,2012-11-20 15:35:00
10:55 AM,53.2,41.0,63,30.17,10.0,North,4.6,-,N/A,,Mostly Cloudy,360,2012-11-20 15:55:00
11:20 AM,54.0,40.8,61,30.17,10.0,NNE,4.6,-,N/A,,Overcast,30,2012-11-20 16:20:00
11:40 AM,53.8,40.1,60,30.16,10.0,Calm,Calm,-,N/A,,Mostly Cloudy,0,2012-11-20 16:40:00
12:00 PM,54.5,40.5,59,30.15,10.0,Calm,Calm,-,N/A,,Clear,0,2012-11-20 17:00:00
12:20 PM,55.4,40.6,58,30.13,10.0,NE,4.6,-,N/A,,Clear,50,2012-11-20 17:20:00
12:45 PM,54.7,40.1,58,30.13,10.0,Calm,Calm,-,N/A,,Clear,0,2012-11-20 17:45:00
1:05 PM,54.9,39.9,57,30.13,10.0,Calm,Calm,-,N/A,,Mostly Cloudy,0,2012-11-20 18:05:00
1:25 PM,54.9,40.5,58,30.12,10.0,Calm,Calm,-,N/A,,Scattered Clouds,0,2012-11-20 18:25:00
1:45 PM,55.4,40.3,57,30.11,10.0,NNE,4.6,-,N/A,,Clear,20,2012-11-20 18:45:00
2:10 PM,54.9,40.1,58,30.11,10.0,Calm,Calm,-,N/A,,Clear,0,2012-11-20 19:10:00
2:30 PM,55.4,40.1,56,30.10,10.0,ENE,3.5,-,N/A,,Clear,60,2012-11-20 19:30:00
2:50 PM,54.9,40.3,58,30.10,10.0,North,5.8,-,N/A,,Clear,10,2012-11-20 19:50:00
3:10 PM,54.7,40.1,58,30.11,10.0,Calm,Calm,-,N/A,,Clear,0,2012-11-20 20:10:00
3:35 PM,54.1,39.9,59,30.11,10.0,NNE,3.5,-,N/A,,Clear,20,2012-11-20 20:35:00
3:55 PM,53.8,40.1,60,30.10,10.0,NNE,3.5,-,N/A,,Clear,30,2012-11-20 20:55:00
4:15 PM,53.6,40.1,60,30.11,10.0,Calm,Calm,-,N/A,,Clear,0,2012-11-20 21:15:00
4:35 PM,53.1,40.3,62,30.10,10.0,Calm,Calm,-,N/A,,Clear,0,2012-11-20 21:35:00
5:00 PM,52.9,40.3,62,30.11,10.0,Calm,Calm,-,N/A,,Clear,0,2012-11-20 22:00:00
5:20 PM,51.8,40.6,66,30.11,10.0,Calm,Calm,-,N/A,,Scattered Clouds,0,2012-11-20 22:20:00
5:40 PM,51.6,40.5,66,30.11,10.0,Calm,Calm,-,N/A,,Scattered Clouds,0,2012-11-20 22:40:00
6:00 PM,51.3,41.0,68,30.12,10.0,Calm,Calm,-,N/A,,Overcast,0,2012-11-20 23:00:00
6:25 PM,52.0,40.6,65,30.13,10.0,Calm,Calm,-,N/A,,Overcast,0,2012-11-20 23:25:00
6:45 PM,50.9,41.2,69,30.13,10.0,Calm,Calm,-,N/A,,Overcast,0,2012-11-20 23:45:00
7:05 PM,50.9,40.8,68,30.13,10.0,Calm,Calm,-,N/A,,Mostly Cloudy,0,2012-11-21 00:05:00
7:25 PM,49.8,41.0,72,30.13,10.0,Calm,Calm,-,N/A,,Scattered Clouds,0,2012-11-21 00:25:00
7:50 PM,47.5,40.5,77,30.14,10.0,Calm,Calm,-,N/A,,Scattered Clouds,0,2012-11-21 00:50:00
8:10 PM,45.9,40.1,80,30.15,10.0,Calm,Calm,-,N/A,,Scattered Clouds,0,2012-11-21 01:10:00
8:30 PM,44.8,40.5,85,30.14,10.0,Calm,Calm,-,N/A,,Scattered Clouds,0,2012-11-21 01:30:00
8:50 PM,43.7,39.6,85,30.14,10.0,Calm,Calm,-,N/A,,Clear,0,2012-11-21 01:50:00
9:15 PM,42.4,39.7,90,30.14,10.0,Calm,Calm,-,N/A,,Clear,0,2012-11-21 02:15:00
9:55 PM,41.5,39.4,92,30.15,4.0,Calm,Calm,-,N/A,,Clear,0,2012-11-21 02:55:00
10:15 PM,41.0,39.2,93,30.15,5.0,Calm,Calm,-,N/A,,Clear,0,2012-11-21 03:15:00
10:40 PM,41.2,39.2,93,30.15,5.0,Calm,Calm,-,N/A,,Clear,0,2012-11-21 03:40:00
11:00 PM,41.0,39.2,93,30.15,4.0,Calm,Calm,-,N/A,,Clear,0,2012-11-21 04:00:00
11:20 PM,41.2,39.2,93,30.15,4.0,Calm,Calm,-,N/A,,Clear,0,2012-11-21 04:20:00
11:40 PM,40.3,38.3,93,30.15,4.0,Calm,Calm,-,N/A,,Clear,0,2012-11-21 04:40:00